Location: Cubitt Town
(51.4833°N, 0.0000°E)
Time: 00:43:45
(UTC+00:00)

Cosmos 1763 Rocket - Pass Details

Date: 15 May 2026
Orbit: 728 x 773 km, 74.0° (Epoch: 9 June)

Event Time Altitude Azimuth Distance (km) Brightness Sun altitude
Exits shadow 21:10:53 13° 155° (SSE) 2,090 5.1 -10.8°
Maximum altitude 21:14:40 29° 101° (E) 1,385 4.4 -11.1°
Drops below altitude 10° 21:19:10 10° 42° (NE) 2,321 6.1 -11.6°
Sets 21:21:48 0° 32° (NNE) 3,247 7.0 -11.8°
